Regional Weather Roundup
Issued by NWS

Home | Current Version | Previous Version | Graphics & Text | Print | Product List | Glossary On
Versions: 1 2 3 4 5 6 7 8 9 10 11 12 13 14 15 16 17 18 19 20 21 22 23 24 25 26 27 28 29 30 31 32 33 34 35 36 37 38 39 40 41 42 43 44 45 46 47 48 49 50
535
ASUS43 KLSX 282357
RWRMO

WEATHER SUMMARY FOR MISSOURI
NATIONAL WEATHER SERVICE SPRINGFIELD MO
700 PM CDT SAT MAY 28 2016

NOTE: "FAIR" INDICATES FEW OR NO CLOUDS BELOW 12,000 FEET WITH NO
       SIGNIFICANT WEATHER AND/OR OBSTRUCTIONS TO VISIBILITY.
       CURRENT SKY AND/OR WEATHER CONDITIONS ARE NOT AVAILABLE FOR
       CHILLICOTHE AND FARMINGTON.

MOZ001>031-035>038-043-044-053-054-290100-
...NORTHERN AND WESTERN MISSOURI...

CITY           SKY/WX    TMP DP  RH WIND       PRES   REMARKS
KANSAS CTY INT SUNNY     74  59  59 SW12      29.92S
6HR MIN TEMP:  71; 6HR MAX TEMP:  76;

LEE`S SUMMIT   PTSUNNY   75  59  57 SW12      29.93S
6HR MIN TEMP:  72; 6HR MAX TEMP:  76;

ST JOSEPH      SUNNY     76  58  53 SW13      29.90R
6HR MIN TEMP:  71; 6HR MAX TEMP:  77;

CHILLICOTHE      N/A     76  59  55 VRB7      29.91R
6HR MIN TEMP:  73; 6HR MAX TEMP:  78;


$$
MOZ066>068-077>081-088>096-101>105-290100-
...SOUTHWEST MISSOURI...

CITY           SKY/WX    TMP DP  RH WIND       PRES   REMARKS
SPRINGFIELD    SUNNY     78  62  57 W9        29.96R
6HR MIN TEMP:  76; 6HR MAX TEMP:  80;

JOPLIN         SUNNY     77  64  64 S12       29.97R
6HR MIN TEMP:  75; 6HR MAX TEMP:  80;

BRANSON        MOSUNNY   81  66  61 CALM      29.98R

$$
MOZ032>034-039>042-045>050-055>058-069>072-290100-
...CENTRAL MISSOURI...

CITY           SKY/WX    TMP DP  RH WIND       PRES   REMARKS
COLUMBIA       NOT AVBL
JEFFERSON CITY SUNNY     80  60  50 SW9       29.91S
6HR MIN TEMP:  80; 6HR MAX TEMP:  83;

ROLLA          CLOUDY    73  66  78 N3        29.93S THUNDER
6HR MIN TEMP:  70; 6HR MAX TEMP:  81; 6HR PCP:  0.21;

SEDALIA        MOSUNNY   78  61  55 W7        29.94R
6HR MIN TEMP:  77; 6HR MAX TEMP:  80;

WARRENSBURG    SUNNY     77  59  53 SW10      29.93R

$$
MOZ051-052-059>065-290100-
...EAST CENTRAL MISSOURI...

CITY           SKY/WX    TMP DP  RH WIND       PRES   REMARKS
ST LOUIS INTL  PTSUNNY   83  66  56 S14       29.92S
6HR MIN TEMP:  83; 6HR MAX TEMP:  86;


$$
MOZ072>076-082>087-097>100-106>115-290100-
...SOUTH CENTRAL AND SOUTHEAST MISSOURI...

CITY           SKY/WX    TMP DP  RH WIND       PRES   REMARKS
CAPE GIRARDEAU MOSUNNY   78  69  73 S7        29.99R
6HR MIN TEMP:  78; 6HR MAX TEMP:  83;

POPLAR BLUFF   CLOUDY    80  70  71 S7        29.98S
6HR MIN TEMP:  79; 6HR MAX TEMP:  82;

WEST PLAINS    MOSUNNY   78  65  63 S12       29.98S
6HR MIN TEMP:  78; 6HR MAX TEMP:  82;


$$



USA.gov is the U.S. government's official web portal to all federal, state and local government web resources and services.